McGrath, AK

3:20 AM AKDT on September 21, 2017 (GMT -0800)
McGrath

Weather History for PAMC - November, 2012

Change the Weather History Date:

Friday, November 23, 2012

  Actual Average Record
Temperature  
Mean Temperature -4 °F 2 °F  
Max Temperature 9 °F 10 °F 46 °F (1952)
Min Temperature -16 °F -6 °F -41 °F (1994)
Degree Days  
Heating Degree Days 69 63  
Month to date heating degree days 1402 1335  
Since 1 July heating degree days 3807 3675  
Cooling Degree Days 0 0  
Month to date cooling degree days 0 0  
Year to date cooling degree days 4 20  
Moisture  
Dew Point -8 °F    
Average Humidity 0    
Maximum Humidity 0    
Minimum Humidity 0    
Precipitation  
Precipitation 0.00 in 0.05 in 1.47 in (2015)
Month to date precipitation 0.95 1.11  
Year to date precipitation 21.45 16.41  
Snow  
Snow 0.00 in 0.70 in 10.80 in (2015)
Month to date snowfall 10.4 14.9  
Since 1 July snowfall 12.7 26.6  
Since 1 September snowfall 12.7 26.6  
Snow Depth 9.00 in    
Sea Level Pressure  
Sea Level Pressure 29.91 in    
Wind  
Wind Speed 9 mph (NNE)    
Max Wind Speed 17 mph    
Max Gust Speed 23 mph    
Visibility 10 miles    
Events      
T = Trace of Precipitation, MM = Missing Value Source: NWS Daily Summary

Daily Weather History Graph

Daily Weather History Graph

Search for Another Location

Airport or City:

Trip Planner

Search our weather history database for the weather conditions in past years. The results will help you decide how hot, cold, wet, or windy it might be!

Date:

Astronomy

Nov. 23, 2012 Rise Set
Actual Time 10:06 AM AKST 4:10 PM AKST
Civil Twilight 9:05 AM AKST 5:11 PM AKST
Nautical Twilight 8:05 AM AKST 6:11 PM AKST
Astronomical Twilight 7:10 AM AKST 7:06 PM AKST
Moon 2:43 PM AKST (11/23) 4:16 AM AKST (11/23)
Length of Visible Light 8h 05m
Length of Day
6h 04m
Waxing Gibbous, 81% of the Moon is Illuminated
Nov 23
Waxing Gibbous
Nov 28
Full
Dec 6
Last Quarter
Dec 12
New
Dec 19
First Quarter

Hourly Weather History & Observations

Time (AKST) Temp. Windchill Dew Point Humidity Pressure Visibility Wind Dir Wind Speed Gust Speed Precip Events Conditions
12:53 AM 1.9 °F -16.2 °F -7.1 °F 66% 29.89 in 10.0 mi NNE 13.8 mph - N/A   Clear
1:53 AM 3.0 °F -14.8 °F -7.1 °F 63% 29.88 in 10.0 mi NNE 13.8 mph - N/A   Clear
3:53 AM 3.0 °F -14.8 °F -6.0 °F 66% 29.85 in 10.0 mi NNE 13.8 mph 23.0 mph N/A   Clear
4:53 AM 3.9 °F -13.7 °F -6.0 °F 64% 29.85 in 10.0 mi NNE 13.8 mph - N/A   Clear
5:53 AM 3.9 °F -11.3 °F -6.0 °F 64% 29.85 in 10.0 mi NNE 10.4 mph - N/A   Clear
6:53 AM 3.9 °F -12.2 °F -6.0 °F 64% 29.84 in 10.0 mi NNE 11.5 mph 18.4 mph N/A   Clear
7:53 AM 5.0 °F -11.6 °F -6.0 °F 61% 29.85 in 10.0 mi NNE 12.7 mph - N/A   Clear
8:53 AM 5.0 °F -10.0 °F -6.0 °F 61% 29.85 in 10.0 mi NNE 10.4 mph - N/A   Clear
9:53 AM 3.9 °F -9.4 °F -6.0 °F 64% 29.86 in 10.0 mi NNE 8.1 mph - N/A   Scattered Clouds
10:53 AM 5.0 °F -9.1 °F -5.1 °F 63% 29.87 in 10.0 mi NNE 9.2 mph - N/A   Scattered Clouds
11:53 AM 7.0 °F -7.5 °F -5.1 °F 58% 29.88 in 10.0 mi NNE 10.4 mph - N/A   Scattered Clouds
12:53 PM 8.1 °F -7.0 °F -4.0 °F 58% 29.89 in 10.0 mi NNE 11.5 mph - N/A   Clear
1:53 PM 8.1 °F -5.3 °F -4.0 °F 58% 29.91 in 10.0 mi NNE 9.2 mph - N/A   Clear
2:53 PM 8.1 °F -6.2 °F -4.0 °F 58% 29.91 in 10.0 mi NNE 10.4 mph - N/A   Clear
3:53 PM 7.0 °F -5.7 °F -4.0 °F 61% 29.93 in 10.0 mi NNE 8.1 mph - N/A   Clear
4:53 PM 6.1 °F -4.3 °F -5.1 °F 60% 29.94 in 10.0 mi NNE 5.8 mph - N/A   Clear
5:53 PM 6.1 °F -2.8 °F -5.1 °F 60% 29.95 in 10.0 mi NNE 4.6 mph - N/A   Clear
6:53 PM -5.1 °F - -11.0 °F 76% 29.96 in 10.0 mi Calm Calm - N/A   Clear
7:53 PM -8.0 °F -16.9 °F -14.1 °F 75% 29.98 in 10.0 mi North 3.5 mph - N/A   Clear
8:53 PM -11.0 °F -20.4 °F -17.0 °F 75% 29.99 in 10.0 mi North 3.5 mph - N/A   Clear
9:53 PM -11.9 °F - -18.0 °F 74% 29.99 in 10.0 mi Calm Calm - N/A   Clear
10:53 PM -14.1 °F -23.9 °F -20.0 °F 75% 30.01 in 10.0 mi WSW 3.5 mph - N/A   Clear
11:53 PM -15.0 °F -27.4 °F -20.9 °F 75% 30.02 in 10.0 mi West 4.6 mph - N/A   Clear